Location: *
(50.3194°N, 7.1067°E)
Time: 16:22:04
(UTC+00:00)

Cosmos 1371 Rocket - Pass Details

Date: 22 September 2019
Orbit: 753 x 790 km, 74.0° (Epoch: 13 October)

Event Time Altitude Azimuth Distance (km) Brightness Sun altitude
Rises 18:08:44 0° 178° (S) 3,247 7.1 -6.9°
Reaches altitude 10° 18:11:14 10° 171° (S) 2,330 6.3 -7.3°
Maximum altitude 18:16:07 39° 104° (ESE) 1,165 4.5 -8.1°
Drops below altitude 10° 18:21:04 10° 37° (NE) 2,362 6.3 -8.8°
Sets 18:23:36 0° 30° (NNE) 3,298 7.1 -9.2°
